Location: General Nathan Twining Observatory
(34.5931°N, 106.8201°W)
Time: 16:32:33
(UTC-06:00)

Daily predictions for brighter satellites

Satellite Brightness Start Highest point End
(mag) Time Altitude Azimuth Time Altitude Azimuth Time Altitude Azimuth
H-2A R/B 4.5 20:04:27 10° W 20:10:40 58° S 20:58:27 14° ESE
H-2A R/B 4.5 20:04:27 10° W 20:10:40 58° S 20:58:28 14° ESE
H-2A R/B 4.5 20:04:27 10° W 20:10:40 58° S 20:58:23 14° ESE
H-2A R/B 4.5 20:04:27 10° W 20:10:40 58° S 20:58:24 14° ESE
H-2A R/B 4.5 20:04:27 10° W 20:10:40 58° S 20:58:20 14° ESE
FengYun 1-2 T 4.3 20:08:02 10° SSE 20:13:40 73° ENE 20:19:19 10° N
Cosmos 1869 Rocket 3.6 20:11:18 10° N 20:15:47 73° E 20:20:13 10° SSE
ERBS 2.6 20:12:41 10° NNW 20:16:05 56° NE 20:19:30 10° SE
Cosmos 1634 Rocket 4.1 20:10:01 10° S 20:16:10 58° E 20:22:22 10° NNE
Cosmos 1092 Rocket 4.1 20:13:50 10° N 20:20:10 69° E 20:26:28 10° SSE
Resurs 1-3 3.8 20:19:25 10° SSE 20:23:39 51° ENE 20:27:54 10° N
Cosmos 1455 3.0 20:20:55 10° SSW 20:24:37 54° W 20:28:20 10° N
Milstar 3 3.4 20:15:55 10° W 20:25:18 54° S 20:31:42 11° ESE
Sakura Rocket 4.1 20:23:37 10° SW 20:26:31 22° SSE 20:29:28 11° ESE
Cosmos 2227 4.2 20:21:39 10° NNW 20:27:26 87° ENE 20:33:06 10° SSE
HJ-1C 3.8 20:24:18 10° S 20:27:43 67° W 20:31:10 10° NNW
Meteor 2-20 4.4 20:30:26 10° N 20:36:34 73° E 20:42:41 10° SSE
CZ-3B DEB 3.3 20:35:58 10° WNW 20:37:59 14° WSW 20:39:30 10° SW
Cosmos 1655 Rocket 4.4 20:32:30 10° N 20:38:33 43° E 20:44:31 10° SSE
FENGYUN 3A 4.4 20:33:26 10° S 20:38:40 54° W 20:43:54 10° NNW
Cosmos 2242 Rocket 3.6 20:36:11 10° S 20:40:40 71° E 20:45:08 10° NNE
Cosmos 220 Rocket 4.0 20:37:43 10° NNW 20:42:11 72° ENE 20:46:35 10° SSE
Cosmos 1939 Rocket 4.1 20:40:34 15° ESE 20:42:54 24° ENE 20:46:08 10° NNE
USA 229 DEB 4.1 20:38:21 10° S 20:44:32 39° ESE 20:50:48 10° NE
USA 229 4.1 20:38:29 10° S 20:44:39 38° ESE 20:50:54 10° NE
Cosmos 1992 Rocket 3.9 20:42:59 10° SSW 20:48:12 81° ESE 20:53:27 10° NNE
Cosmos 2279 Rocket 4.0 20:47:31 10° S 20:53:42 68° E 20:59:52 10° NNE
Cosmos 2195 Rocket 4.4 20:48:41 10° N 20:54:50 86° E 21:01:00 10° S
Cosmos 1627 Rocket 4.4 20:50:48 10° N 20:57:00 87° E 21:03:08 10° S
Lacrosse 4 Rocket 1.5 20:54:16 10° NNW 20:58:39 88° WSW 21:02:01 17° SSE
Cosmos 2263 Rocket 2.4 20:53:37 10° N 20:59:02 51° ENE 21:02:37 21° SE
Atlas Centaur 2 2.8 20:52:55 10° WSW 20:59:15 58° S 21:05:12 18° E
Helios 1B rocket 2.3 20:55:19 10° NNE 20:59:25 76° E 21:03:30 10° S
ALOS 4.5 20:58:18 10° SSW 21:02:06 25° W 21:05:56 10° NW
Resurs 01 Rocket 2.7 20:57:59 10° S 21:02:15 46° W 21:06:33 10° NNW
BREEZE-M DEB (TANK) 4.3 20:59:40 10° WSW 21:03:34 63° NNW 21:12:36 10° ENE
SAR-Lupe-4 3.5 21:02:14 22° SSE 21:04:23 66° ENE 21:07:57 10° N
Cosmos 2322 Rocket 3.3 21:00:18 10° SW 21:05:39 46° WNW 21:11:04 10° N
ATLAS CENTAUR R/B 4.3 21:03:28 10° W 21:06:29 23° SW 21:12:29 10° S
FALCON 9 R/B -0.1 21:05:58 10° W 21:08:29 89° N 21:08:46 63° E
Cosmos 1825 2.5 21:07:03 10° NNW 21:10:49 64° W 21:14:14 12° S
Cosmos 1428 Rocket 4.4 21:05:06 10° N 21:11:12 69° E 21:16:15 15° SSE
Intercosmos 25 Rocket 4.0 21:08:58 10° SSW 21:12:01 48° W 21:15:44 10° N
COSMOS 2428 3.4 21:10:54 24° SE 21:12:50 30° ESE 21:17:42 10° NE
Cosmos 2360 Rocket 2.1 21:08:17 10° SSW 21:13:53 75° ESE 21:19:32 10° NNE
OAO 3 Rocket 3.2 21:11:02 10° W 21:15:56 86° SSW 21:18:18 31° ESE
Cosmos 1908 Rocket 4.0 21:17:28 10° N 21:21:34 41° E 21:22:17 38° ESE
SAR-Lupe-1 4.0 21:20:14 33° S 21:21:44 84° WSW 21:25:20 10° NNW
Sich 1 Rocket 4.0 21:19:13 10° N 21:23:31 44° E 21:24:25 39° ESE
Cosmos 1408 4.1 21:22:12 10° NNW 21:25:34 35° W 21:28:50 10° SSW
Cosmos 968 Rocket 3.8 21:21:58 10° N 21:27:00 48° ENE 21:28:30 37° ESE
Cosmos 2322 3.6 21:23:35 10° SSW 21:29:18 86° ESE 21:35:02 10° NNE
Meteor 1-29 4.1 21:27:59 10° N 21:31:18 43° WNW 21:34:34 10° SSW
ATLAS 5 CENTAUR R/B 2.6 21:26:29 10° NNW 21:32:33 61° ENE 21:35:10 36° ESE
SL-16 R/B 4.4 21:31:10 10° WSW 21:35:53 27° WNW 21:40:38 10° N
Cosmos 1782 Rocket 4.4 21:32:03 10° NNE 21:35:39 33° ENE 21:35:39 33° ENE
Envisat 3.4 21:34:34 19° S 21:38:05 61° W 21:43:07 10° NNW
ARGOS 4.0 21:37:52 30° E 21:38:22 31° ENE 21:43:00 10° N
Cosmos 1733 Rocket 4.1 21:34:57 10° NNW 21:39:12 45° W 21:42:20 17° SSW
H-2A R/B 3.7 21:40:23 18° ENE 21:40:23 18° ENE 21:43:13 10° NNE
Cosmos 1867 3.7 21:35:17 10° NNW 21:40:41 58° ENE 21:41:58 46° ESE
Okean 1-7 3.4 21:45:28 48° ENE 21:45:28 48° ENE 21:49:12 10° NNE
Helios 1A 4.5 21:42:30 16° SSW 21:45:23 34° W 21:49:16 10° NNW
USA 234 3.4 21:44:01 36° ESE 21:46:40 62° NE 21:53:07 10° NW
Okean 2 Rocket 4.2 21:44:14 10° NNE 21:47:27 31° NE 21:47:27 31° NE
CZ-4B DEB 4.4 21:49:12 26° WSW 21:49:35 27° W 21:52:13 10° NW
Cosmos 2333 4.2 21:50:10 48° SSE 21:51:27 60° ESE 21:57:07 10° NNE
Cosmos 2237 Rocket 4.5 21:55:49 10° NE 21:55:49 10° NE 21:55:53 10° NE
Cosmos 2333 Rocket 3.8 21:55:19 20° ENE 21:55:19 20° ENE 21:57:23 10° NE
YAOGAN 6 3.0 21:55:57 62° WNW 21:55:57 62° WNW 21:59:16 10° NNW
SEDSat Delta rocket 3.6 21:50:35 10° W 21:55:48 61° S 21:56:23 58° SSE
Cosmos 2278 Rocket 4.2 21:56:31 10° NNE 21:59:28 14° NE 21:59:34 14° NE
Cosmos 1844 Rocket 3.5 21:55:54 10° N 22:00:57 34° ENE 22:00:57 34° ENE
ERS-1 Rocket 3.0 22:02:03 59° S 22:02:58 76° WSW 22:08:00 10° NNW
Cosmos 1703 Rocket 4.2 22:04:07 40° SW 22:05:20 55° W 22:09:41 10° N
MetOp-A 3.9 22:06:49 73° SE 22:07:19 81° ENE 22:12:41 10° N
SeaSat 1 3.4 22:07:43 34° NE 22:07:43 34° NE 22:11:46 10° N
Nimbus 7 Rocket 4.3 22:05:23 10° NNE 22:11:19 66° ESE 22:11:30 66° ESE
Centaur AC-42 4.2 22:05:39 10° W 22:15:03 22° SW 22:16:02 21° SSW
Cosmos 2219 Rocket 2.7 22:19:11 44° NE 22:19:11 44° NE 22:23:08 10° NNE
SPOT 1/Viking Rocket 3.9 22:28:19 55° NNE 22:28:19 55° NNE 22:32:35 10° N
SPOT 5 3.3 22:29:53 60° NNW 22:29:53 60° NNW 22:33:42 10° NNW
NOSS 3-1 (C) 3.2 22:29:42 86° N 22:29:42 86° N 22:35:50 10° NNE
Cosmos 1777 Rocket 4.4 22:33:52 10° NNW 22:38:19 61° NW 22:38:19 61° NW
Cosmos 2263 Rocket 4.3 22:38:53 10° WNW 22:42:28 18° W 22:44:21 15° WSW
NOSS 3-1 (A) 4.1 22:47:49 43° NNE 22:47:49 43° NNE 22:52:00 10° NNE
Atlas Centaur 2 3.0 22:41:32 10° W 22:47:50 59° SW 22:47:50 59° SW
H-2A R/B 4.2 22:51:22 21° N 22:51:22 21° N 22:52:57 10° N
COSMOS 2428 4.2 22:52:40 13° WSW 22:56:57 32° WNW 23:02:03 10° N
Cosmos 1553 Rocket 4.3 23:01:48 61° N 23:01:48 61° N 23:06:50 10° N
Milstar 3 4.4 23:02:35 10° WSW 23:05:16 19° SW 23:05:16 19° SW
CZ-4C R/B 3.4 23:02:54 10° NNW 23:09:38 50° NE 23:09:38 50° NE
Terra 3.8 23:19:36 26° NNW 23:19:36 26° NNW 23:21:40 10° NNW
ATLAS 5 CENTAUR R/B 4.2 23:12:21 10° WNW 23:16:45 21° WSW 23:16:45 21° WSW
H-2A R/B 3.7 23:21:01 29° NW 23:21:01 29° NW 23:23:45 10° NNW
Cosmos 2237 Rocket 3.7 23:37:35 33° NNW 23:37:35 33° NNW 23:41:01 10° N
Cosmos 2333 Rocket 3.7 23:37:14 33° NW 23:37:14 33° NW 23:41:48 10° N
Cosmos 2278 Rocket 3.7 23:38:28 10° NNW 23:41:25 32° NNW 23:41:25 32° NNW
